,,,PA_Meas_PMT16A,,PR_Meas_QMR101_102,,RH_Meas_QMH101,,SR_Meas_QMS101,,TA_Meas_QMH101,,GenWind,,GenWind,
date,time,status,PA,status,PR,status,RH,status,SR,status,TA,status,DirAvg,status,SpdAvg,
2011-01-14, 00:00:04,VALID,1002.08,VALID,0,INVALID,163.586,VALID,0,VALID,25.4753,VALID,357,VALID,0.682422,
2011-01-14, 00:01:04,VALID,1002.04,VALID,0,INVALID,163.594,VALID,0,VALID,25.5337,VALID,338,VALID,0.782422,
2011-01-14, 00:02:04,VALID,1001.97,VALID,0,INVALID,163.563,VALID,0,VALID,25.5142,VALID,352,VALID,0.732422,
2011-01-14, 00:03:04,VALID,1001.96,VALID,0,INVALID,163.601,VALID,0,VALID,25.4948,VALID,348,VALID,0.957812,
2011-01-14, 00:04:04,VALID,1001.93,VALID,0,INVALID,163.586,VALID,0,VALID,25.4753,VALID,351,VALID,0.6625,
2011-01-14, 00:05:04,VALID,1001.91,VALID,0,INVALID,163.594,VALID,0,VALID,25.4948,VALID,351,VALID,1.27734,
2011-01-14, 00:06:04,VALID,1001.89,VALID,0,INVALID,163.617,VALID,0,VALID,25.5142,VALID,351,VALID,0.923828,
2011-01-14, 00:07:04,VALID,1001.88,VALID,0,INVALID,163.601,VALID,0,VALID,25.5532,VALID,348,VALID,0.787109,
2011-01-14, 00:08:04,VALID,1001.91,VALID,0,INVALID,163.556,VALID,0,VALID,25.5727,VALID,1,VALID,0.663281,
2011-01-14, 00:09:04,VALID,1001.92,VALID,0,INVALID,163.601,VALID,0,VALID,25.6311,VALID,33,VALID,0.490234,
2011-01-14, 00:10:04,VALID,1001.9,VALID,0,INVALID,163.563,VALID,0,VALID,25.672,VALID,358,VALID,0.628516,
2011-01-14, 00:11:04,VALID,1001.9,VALID,0,INVALID,163.571,VALID,0,VALID,25.67,VALID,356,VALID,0.654297,
2011-01-14, 00:12:04,VALID,1001.91,VALID,0,INVALID,163.571,VALID,0,VALID,25.6681,VALID,349,VALID,0.419141,
2011-01-14, 00:13:04,VALID,1001.91,VALID,0,INVALID,147.001,VALID,0,VALID,25.7285,VALID,12,VALID,0.685547,
2011-01-14, 00:14:04,VALID,1001.88,VALID,0,INVALID,134.459,VALID,0,VALID,25.746,VALID,11,VALID,0.601563,
2011-01-14, 00:15:04,VALID,1001.89,VALID,0,INVALID,133.292,VALID,0,VALID,25.8064,VALID,11,VALID,0.439844,
2011-01-14, 00:16:04,VALID,1001.88,VALID,0,INVALID,133.063,VALID,0,VALID,25.7869,VALID,6,VALID,0.349219,
2011-01-14, 00:17:04,VALID,1001.88,VALID,0,INVALID,133.132,VALID,0,VALID,25.7285,VALID,6,VALID,0.462891,
2011-01-14, 00:18:04,VALID,1001.86,VALID,0,INVALID,140.028,VALID,0,VALID,25.709,VALID,6,VALID,0.341406,
2011-01-14, 00:19:04,VALID,1001.85,VALID,0,INVALID,147.176,VALID,0,VALID,25.6292,VALID,6,VALID,0.307813,
2011-01-14, 00:20:04,VALID,1001.86,VALID,0,INVALID,149.419,VALID,0,VALID,25.5902,VALID,6,VALID,0.150781,
2011-01-14, 00:21:04,VALID,1001.86,VALID,0,INVALID,150.373,VALID,0,VALID,25.5921,VALID,6,VALID,0.214844,
2011-01-14, 00:22:04,VALID,1001.85,VALID,0,INVALID,153.066,VALID,0,VALID,25.5513,VALID,6,VALID,0.255469,
2011-01-14, 00:23:04,VALID,1001.88,VALID,0,INVALID,156.003,VALID,0,VALID,25.5746,VALID,6,VALID,0.326172,
2011-01-14, 00:24:04,VALID,1001.84,VALID,0,INVALID,163.548,VALID,0,VALID,25.5532,VALID,6,VALID,0.253906,
2011-01-14, 00:25:04,VALID,1001.85,VALID,0,INVALID,163.578,VALID,0,VALID,25.5142,VALID,3,VALID,0.592188,
2011-01-14, 00:26:04,VALID,1001.82,VALID,0,INVALID,163.617,VALID,0,VALID,25.4734,VALID,8,VALID,0.441797,
2011-01-14, 00:27:04,VALID,1001.78,VALID,0,INVALID,163.609,VALID,0,VALID,25.4169,VALID,8,VALID,0.461719,
2011-01-14, 00:28:04,VALID,1001.78,VALID,0,INVALID,163.609,VALID,0,VALID,25.3584,VALID,8,VALID,0.486328,
2011-01-14, 00:29:04,VALID,1001.75,VALID,0,INVALID,163.571,VALID,0,VALID,25.3,VALID,8,VALID,0.422656,
2011-01-14, 00:30:04,VALID,1001.74,VALID,0,INVALID,163.632,VALID,0,VALID,25.2611,VALID,8,VALID,0.431641,
2011-01-14, 00:31:04,VALID,1001.77,VALID,0,INVALID,163.609,VALID,0,VALID,25.2027,VALID,8,VALID,0.421094,
2011-01-14, 00:32:04,VALID,1001.73,VALID,0,INVALID,163.601,VALID,0,VALID,25.1832,VALID,8,VALID,0.448047,
2011-01-14, 00:33:04,VALID,1001.72,VALID,0,INVALID,163.624,VALID,0,VALID,25.1229,VALID,8,VALID,0.380469,
2011-01-14, 00:34:04,VALID,1001.73,VALID,0,INVALID,163.609,VALID,0,VALID,25.0858,VALID,8,VALID,0.437109,
2011-01-14, 00:35:04,VALID,1001.69,VALID,0,INVALID,163.632,VALID,0,VALID,25.0644,VALID,8,VALID,0.296875,
2011-01-14, 00:36:04,VALID,1001.67,VALID,0,INVALID,163.617,VALID,0,VALID,25.0255,VALID,8,VALID,0.50625,
2011-01-14, 00:37:04,VALID,1001.65,VALID,0,INVALID,163.601,VALID,0,VALID,25.045,VALID,7,VALID,0.469922,
2011-01-14, 00:38:04,VALID,1001.65,VALID,0,INVALID,163.647,VALID,0,VALID,25.0469,VALID,7,VALID,0.342578,
2011-01-14, 00:39:04,VALID,1001.59,VALID,0,INVALID,163.632,VALID,0,VALID,25.0469,VALID,360,VALID,0.665234,
2011-01-14, 00:40:04,VALID,1001.55,VALID,0,INVALID,163.632,VALID,0.100563,VALID,25.1015,VALID,9,VALID,0.642969,
2011-01-14, 00:41:04,VALID,1001.54,VALID,0,INVALID,163.617,VALID,0.100563,VALID,25.1618,VALID,18,VALID,0.766406,
2011-01-14, 00:42:04,VALID,1001.53,VALID,0,INVALID,163.601,VALID,0,VALID,25.2202,VALID,347,VALID,0.474219,
2011-01-14, 00:43:04,VALID,1001.51,VALID,0,INVALID,163.601,VALID,0.100563,VALID,25.2981,VALID,24,VALID,0.537109,
2011-01-14, 00:44:04,VALID,1001.51,VALID,0,INVALID,163.586,VALID,0.100563,VALID,25.3351,VALID,360,VALID,0.693359,
2011-01-14, 00:45:04,VALID,1001.51,VALID,0,INVALID,154.5,VALID,0,VALID,25.4344,VALID,348,VALID,0.860156,
2011-01-14, 00:46:04,VALID,1001.47,VALID,0,INVALID,139.067,VALID,0,VALID,25.5123,VALID,5,VALID,0.557422,
2011-01-14, 00:47:04,VALID,1001.48,VALID,0,INVALID,132.865,VALID,0,VALID,25.5104,VALID,17,VALID,0.731641,
2011-01-14, 00:48:04,VALID,1001.49,VALID,0,INVALID,125.259,VALID,0.100563,VALID,25.5532,VALID,337,VALID,0.723828,
2011-01-14, 00:49:04,VALID,1001.49,VALID,0,INVALID,119.178,VALID,0.100563,VALID,25.5298,VALID,9,VALID,0.647656,
2011-01-14, 00:50:04,VALID,1001.48,VALID,0,INVALID,114.242,VALID,0,VALID,25.5902,VALID,7,VALID,0.628906,
2011-01-14, 00:51:04,VALID,1001.52,VALID,0,INVALID,110.497,VALID,0,VALID,25.6486,VALID,359,VALID,0.746875,
2011-01-14, 00:52:04,VALID,1001.51,VALID,0,VALID,104,VALID,0,VALID,25.7265,VALID,350,VALID,1.04961,
2011-01-14, 00:53:04,VALID,1001.51,VALID,0,VALID,104,VALID,0,VALID,25.8044,VALID,352,VALID,0.542969,
2011-01-14, 00:54:04,VALID,1001.51,VALID,0,VALID,104,VALID,0,VALID,25.8044,VALID,338,VALID,0.674609,
2011-01-14, 00:55:04,VALID,1001.51,VALID,0,VALID,104,VALID,0,VALID,25.8044,VALID,340,VALID,0.538281,
2011-01-14, 00:56:04,VALID,1001.46,VALID,0,VALID,104,VALID,0,VALID,25.8239,VALID,340,VALID,0.403516,
2011-01-14, 00:57:04,VALID,1001.47,VALID,0,VALID,104,VALID,0,VALID,25.8453,VALID,342,VALID,0.4375,
2011-01-14, 00:58:04,VALID,1001.48,VALID,0,VALID,103.936,VALID,0,VALID,25.8259,VALID,345,VALID,0.682422,
2011-01-14, 00:59:04,VALID,1001.48,VALID,0,VALID,104,VALID,0,VALID,25.8259,VALID,358,VALID,0.485938,
2011-01-14, 01:00:04,VALID,1001.47,VALID,0,VALID,104,VALID,0,VALID,25.8044,VALID,358,VALID,0.503906,
2011-01-14, 01:01:04,VALID,1001.49,VALID,0,VALID,104,VALID,0,VALID,25.8064,VALID,358,VALID,0.508203,
2011-01-14, 01:02:04,VALID,1001.47,VALID,0,VALID,104,VALID,0,VALID,25.785,VALID,358,VALID,0.305859,
2011-01-14, 01:03:04,VALID,1001.49,VALID,0,VALID,104,VALID,0,VALID,25.785,VALID,5,VALID,0.566406,
2011-01-14, 01:04:04,VALID,1001.46,VALID,0,VALID,104,VALID,0,VALID,25.7655,VALID,4,VALID,0.460156,
2011-01-14, 01:05:04,VALID,1001.45,VALID,0,VALID,104,VALID,0,VALID,25.7869,VALID,4,VALID,0.472656,
2011-01-14, 01:06:04,VALID,1001.43,VALID,0,VALID,104,VALID,0,VALID,25.7674,VALID,2,VALID,0.428125,
2011-01-14, 01:07:04,VALID,1001.42,VALID,0,VALID,104,VALID,0,VALID,25.7674,VALID,346,VALID,0.673047,
2011-01-14, 01:08:04,VALID,1001.39,VALID,0,VALID,104,VALID,0,VALID,25.6876,VALID,349,VALID,0.715625,
2011-01-14, 01:09:04,VALID,1001.37,VALID,0,VALID,104,VALID,0,VALID,25.7285,VALID,349,VALID,0.551562,
2011-01-14, 01:10:04,VALID,1001.37,VALID,0,VALID,103.409,VALID,0,VALID,25.6895,VALID,348,VALID,0.651172,
2011-01-14, 01:11:04,VALID,1001.36,VALID,0,VALID,103.081,VALID,0,VALID,25.709,VALID,348,VALID,0.500391,
2011-01-14, 01:12:04,VALID,1001.33,VALID,0,VALID,103.867,VALID,0,VALID,25.709,VALID,348,VALID,0.366797,
2011-01-14, 01:13:04,VALID,1001.31,VALID,0,VALID,102.288,VALID,0,VALID,25.6895,VALID,352,VALID,0.362109,
2011-01-14, 01:14:04,VALID,1001.28,VALID,0,VALID,101.952,VALID,0,VALID,25.6895,VALID,4,VALID,0.468359,
2011-01-14, 01:15:04,VALID,1001.29,VALID,0,VALID,101.373,VALID,0,VALID,25.7285,VALID,347,VALID,0.6375,
2011-01-14, 01:16:04,VALID,1001.28,VALID,0,VALID,100.961,VALID,0,VALID,25.7674,VALID,354,VALID,0.814062,
2011-01-14, 01:17:04,VALID,1001.23,VALID,0,VALID,101.06,VALID,0,VALID,25.785,VALID,2,VALID,0.557813,
2011-01-14, 01:18:04,VALID,1001.18,VALID,0,VALID,99.8315,VALID,0,VALID,25.8668,VALID,351,VALID,1.13789,
2011-01-14, 01:19:04,VALID,1001.19,VALID,0,VALID,99.3051,VALID,0,VALID,25.9038,VALID,343,VALID,1.02422,
2011-01-14, 01:20:04,VALID,1001.2,VALID,0,VALID,99.1983,VALID,0,VALID,25.9232,VALID,359,VALID,0.776563,
2011-01-14, 01:21:04,VALID,1001.19,VALID,0,VALID,99.6103,VALID,0,VALID,25.8823,VALID,358,VALID,0.792578,
2011-01-14, 01:22:04,VALID,1001.2,VALID,0,VALID,99.7781,VALID,0,VALID,25.8629,VALID,33,VALID,0.719531,
2011-01-14, 01:23:04,VALID,1001.2,VALID,0,VALID,100.564,VALID,0,VALID,25.8648,VALID,3,VALID,0.432813,
2011-01-14, 01:24:04,VALID,1001.2,VALID,0,VALID,100.503,VALID,0,VALID,25.8239,VALID,4,VALID,0.751562,
2011-01-14, 01:25:04,VALID,1001.21,VALID,0,VALID,100.366,VALID,0,VALID,25.8843,VALID,345,VALID,0.766797,
2011-01-14, 01:26:04,VALID,1001.21,VALID,0,VALID,100.579,VALID,0,VALID,25.9057,VALID,4,VALID,0.932813,
2011-01-14, 01:27:04,VALID,1001.22,VALID,0,VALID,100.839,VALID,0,VALID,25.8843,VALID,358,VALID,0.663672,
2011-01-14, 01:28:04,VALID,1001.2,VALID,0,VALID,101.174,VALID,0,VALID,25.8629,VALID,358,VALID,0.360547,
2011-01-14, 01:29:04,VALID,1001.19,VALID,0,VALID,100.579,VALID,0,VALID,25.8843,VALID,334,VALID,0.666797,
2011-01-14, 01:30:04,VALID,1001.17,VALID,0,VALID,100.701,VALID,0,VALID,25.8843,VALID,13,VALID,0.340234,
2011-01-14, 01:31:04,VALID,1001.15,VALID,0,VALID,100.564,VALID,0,VALID,25.9038,VALID,15,VALID,0.992969,
2011-01-14, 01:32:04,VALID,1001.13,VALID,0,VALID,100.259,VALID,0,VALID,25.9213,VALID,353,VALID,0.549219,
2011-01-14, 01:33:04,VALID,1001.13,VALID,0,VALID,99.9536,VALID,0,VALID,25.9213,VALID,4,VALID,0.742578,
2011-01-14, 01:34:04,VALID,1001.12,VALID,0,VALID,99.7858,VALID,0,VALID,25.9427,VALID,345,VALID,0.694141,
2011-01-14, 01:35:04,VALID,1001.14,VALID,0,VALID,100.488,VALID,0,VALID,25.9642,VALID,1,VALID,0.745313,
2011-01-14, 01:36:04,VALID,1001.15,VALID,0,VALID,100.808,VALID,0,VALID,25.9038,VALID,360,VALID,0.620703,
2011-01-14, 01:37:04,VALID,1001.1,VALID,0,VALID,100.366,VALID,0,VALID,25.8843,VALID,351,VALID,0.486719,
2011-01-14, 01:38:04,VALID,1001.13,VALID,0,VALID,100.991,VALID,0,VALID,25.8648,VALID,13,VALID,0.553125,
2011-01-14, 01:39:04,VALID,1001.12,VALID,0,VALID,100.671,VALID,0,VALID,25.8453,VALID,7,VALID,0.530469,
2011-01-14, 01:40:04,VALID,1001.14,VALID,0,VALID,100.442,VALID,0,VALID,25.8219,VALID,358,VALID,0.685156,
2011-01-14, 01:41:04,VALID,1001.17,VALID,0,VALID,99.8544,VALID,0,VALID,25.8239,VALID,357,VALID,0.866797,
2011-01-14, 01:42:04,VALID,1001.17,VALID,0,VALID,99.8315,VALID,0,VALID,25.8239,VALID,354,VALID,0.530078,
2011-01-14, 01:43:04,VALID,1001.21,VALID,0,VALID,99.7705,VALID,0,VALID,25.8025,VALID,4,VALID,0.725,
2011-01-14, 01:44:04,VALID,1001.22,VALID,0,VALID,99.0915,VALID,0,VALID,25.8434,VALID,355,VALID,0.691016,
2011-01-14, 01:45:04,VALID,1001.29,VALID,0,VALID,98.9695,VALID,0,VALID,25.8823,VALID,307,VALID,0.433203,
2011-01-14, 01:46:04,VALID,1001.45,VALID,0,VALID,98.8703,VALID,0,VALID,25.9213,VALID,275,VALID,1.4668,
2011-01-14, 01:47:04,VALID,1001.53,VALID,0,VALID,99.8163,VALID,0,VALID,25.9797,VALID,14,VALID,0.85625,
2011-01-14, 01:48:04,VALID,1001.53,VALID,0,VALID,98.588,VALID,0,VALID,25.9992,VALID,283,VALID,1.50664,
2011-01-14, 01:49:04,VALID,1001.5,VALID,0,VALID,98.527,VALID,0,VALID,26.0381,VALID,288,VALID,1.43984,
2011-01-14, 01:50:04,VALID,1001.52,VALID,0,VALID,99.6942,VALID,0,VALID,26.0596,VALID,245,VALID,0.841406,
2011-01-14, 01:51:04,VALID,1001.49,VALID,0,VALID,100.06,VALID,0,VALID,26.0381,VALID,282,VALID,0.710156,
2011-01-14, 01:52:04,VALID,1001.47,VALID,0,VALID,99.9994,VALID,0,VALID,26.0381,VALID,308,VALID,0.775781,
2011-01-14, 01:53:04,VALID,1001.49,VALID,0,VALID,100.678,VALID,0,VALID,26.0187,VALID,340,VALID,0.992578,
2011-01-14, 01:54:04,VALID,1001.52,VALID,0,VALID,101.594,VALID,0,VALID,26.0187,VALID,296,VALID,1.38555,
2011-01-14, 01:55:04,VALID,1001.48,VALID,0,VALID,101.998,VALID,0.100563,VALID,26.0381,VALID,289,VALID,2.61953,
2011-01-14, 01:56:04,VALID,1001.49,VALID,0,VALID,102.242,VALID,0,VALID,26.0596,VALID,317,VALID,0.850391,
2011-01-14, 01:57:04,VALID,1001.44,VALID,0,VALID,102.677,VALID,0,VALID,26.0381,VALID,300,VALID,1.6457,
2011-01-14, 01:58:04,VALID,1001.48,VALID,0,VALID,103.142,VALID,0,VALID,26.0381,VALID,300,VALID,1.51367,
2011-01-14, 01:59:04,VALID,1001.43,VALID,0,VALID,104,VALID,0,VALID,26.0381,VALID,290,VALID,2.67852,
2011-01-14, 02:00:04,VALID,1001.42,VALID,0,VALID,104,VALID,0,VALID,26.0381,VALID,3,VALID,0.918359,
2011-01-14, 02:01:04,VALID,1001.46,VALID,0,VALID,104,VALID,0,VALID,26.0401,VALID,299,VALID,0.801953,
2011-01-14, 02:02:04,VALID,1001.46,VALID,0,VALID,104,VALID,0,VALID,26.0187,VALID,278,VALID,0.971875,
2011-01-14, 02:03:04,VALID,1001.45,VALID,0,VALID,104,VALID,0.100563,VALID,25.9992,VALID,281,VALID,0.817578,
2011-01-14, 02:04:04,VALID,1001.47,VALID,0,INVALID,109.398,VALID,0,VALID,25.9992,VALID,266,VALID,0.765234,
2011-01-14, 02:05:04,VALID,1001.47,VALID,0,INVALID,113.014,VALID,0,VALID,25.9992,VALID,274,VALID,0.667969,
2011-01-14, 02:06:04,VALID,1001.45,VALID,0,INVALID,116.157,VALID,0,VALID,25.9797,VALID,305,VALID,1.15547,
2011-01-14, 02:07:04,VALID,1001.43,VALID,0,INVALID,118.942,VALID,0,VALID,25.9797,VALID,289,VALID,0.856641,
2011-01-14, 02:08:04,VALID,1001.43,VALID,0,INVALID,126.533,VALID,0.100563,VALID,25.9797,VALID,269,VALID,0.601953,
2011-01-14, 02:09:04,VALID,1001.39,VALID,0,INVALID,127.158,VALID,0,VALID,25.9797,VALID,307,VALID,1.12539,
2011-01-14, 02:10:04,VALID,1001.41,VALID,0,INVALID,135.84,VALID,0,VALID,25.9797,VALID,286,VALID,1.12266,
2011-01-14, 02:11:04,VALID,1001.4,VALID,0,INVALID,147.253,VALID,0.100563,VALID,25.9602,VALID,279,VALID,0.896875,
2011-01-14, 02:12:04,VALID,1001.41,VALID,0,INVALID,159.169,VALID,0,VALID,25.9602,VALID,310,VALID,0.424219,
2011-01-14, 02:13:04,VALID,1001.39,VALID,0,INVALID,160.786,VALID,0,VALID,25.9388,VALID,295,VALID,0.877734,
2011-01-14, 02:14:04,VALID,1001.4,VALID,0,INVALID,163.502,VALID,0,VALID,25.9817,VALID,297,VALID,0.655859,
2011-01-14, 02:15:04,VALID,1001.42,VALID,0,INVALID,163.517,VALID,0,VALID,25.9408,VALID,293,VALID,0.995703,
2011-01-14, 02:16:04,VALID,1001.42,VALID,0,INVALID,163.54,VALID,0,VALID,25.9622,VALID,278,VALID,0.798047,
2011-01-14, 02:17:04,VALID,1001.44,VALID,0,INVALID,163.525,VALID,0,VALID,25.9408,VALID,263,VALID,0.185156,
2011-01-14, 02:18:04,VALID,1001.45,VALID,0,INVALID,163.548,VALID,0,VALID,25.9408,VALID,294,VALID,0.597266,
2011-01-14, 02:19:04,VALID,1001.46,VALID,0,INVALID,163.556,VALID,0.100563,VALID,25.9622,VALID,260,VALID,0.319531,
2011-01-14, 02:20:04,VALID,1001.51,VALID,0,INVALID,163.563,VALID,0.100563,VALID,25.9602,VALID,285,VALID,0.835156,
2011-01-14, 02:21:04,VALID,1001.48,VALID,0,INVALID,163.556,VALID,0,VALID,25.9817,VALID,276,VALID,0.326172,
2011-01-14, 02:22:04,VALID,1001.54,VALID,0,INVALID,163.556,VALID,0,VALID,25.9602,VALID,279,VALID,0.657031,
2011-01-14, 02:23:04,VALID,1001.56,VALID,0,INVALID,163.563,VALID,0,VALID,25.9602,VALID,276,VALID,0.0625,
2011-01-14, 02:24:04,VALID,1001.58,VALID,0,INVALID,163.548,VALID,0,VALID,25.9797,VALID,277,VALID,0.258203,
2011-01-14, 02:25:04,VALID,1001.58,VALID,0,INVALID,163.571,VALID,0.100563,VALID,25.9583,VALID,277,VALID,0.00585938,
2011-01-14, 02:26:04,VALID,1001.6,VALID,0,INVALID,163.571,VALID,0.100563,VALID,26.0012,VALID,257,VALID,0.444531,
2011-01-14, 02:27:04,VALID,1001.64,VALID,0,INVALID,163.556,VALID,0.100563,VALID,25.9797,VALID,245,VALID,1.35742,
2011-01-14, 02:28:04,VALID,1001.62,VALID,0,INVALID,163.54,VALID,0,VALID,25.9602,VALID,223,VALID,1.71133,
2011-01-14, 02:29:04,VALID,1001.71,VALID,0,INVALID,163.548,VALID,0,VALID,25.9038,VALID,232,VALID,1.475,
2011-01-14, 02:30:04,VALID,1001.72,VALID,0,INVALID,163.586,VALID,0.100563,VALID,25.7265,VALID,252,VALID,2.4832,
2011-01-14, 02:31:04,VALID,1001.72,VALID,0,INVALID,163.594,VALID,0,VALID,25.67,VALID,269,VALID,1.49492,
2011-01-14, 02:32:04,VALID,1001.75,VALID,0,INVALID,163.601,VALID,0,VALID,25.5318,VALID,285,VALID,1.09258,
2011-01-14, 02:33:04,VALID,1001.79,VALID,0.5,INVALID,163.601,VALID,0,VALID,25.4539,VALID,247,VALID,2.14336,
2011-01-14, 02:34:04,VALID,1001.84,VALID,0.5,INVALID,163.617,VALID,0,VALID,25.3176,VALID,274,VALID,1.56992,
2011-01-14, 02:35:04,VALID,1001.87,VALID,1,INVALID,163.624,VALID,0,VALID,25.1423,VALID,291,VALID,1.86563,
2011-01-14, 02:36:04,VALID,1001.87,VALID,0,INVALID,163.655,VALID,0,VALID,24.9866,VALID,258,VALID,1.7668,
2011-01-14, 02:37:04,VALID,1001.84,VALID,0.5,INVALID,163.647,VALID,0.100563,VALID,24.8308,VALID,300,VALID,2.97578,
2011-01-14, 02:38:04,VALID,1001.81,VALID,0,INVALID,163.685,VALID,0.100563,VALID,24.6166,VALID,282,VALID,2.18828,
2011-01-14, 02:39:04,VALID,1001.88,VALID,0.5,INVALID,163.693,VALID,0,VALID,24.4609,VALID,304,VALID,1.46094,
2011-01-14, 02:40:04,VALID,1001.85,VALID,0,INVALID,163.67,VALID,0.100563,VALID,24.4025,VALID,281,VALID,1.72148,
2011-01-14, 02:41:04,VALID,1001.84,VALID,0,INVALID,163.655,VALID,0,VALID,24.3849,VALID,245,VALID,2.15742,
2011-01-14, 02:42:04,VALID,1001.83,VALID,0.5,INVALID,163.685,VALID,0.100563,VALID,24.3246,VALID,265,VALID,1.45,
2011-01-14, 02:43:04,VALID,1001.77,VALID,0,INVALID,163.693,VALID,0,VALID,24.2644,VALID,237,VALID,1.57734,
2011-01-14, 02:44:04,VALID,1001.77,VALID,0.5,INVALID,163.701,VALID,0,VALID,24.2662,VALID,231,VALID,1.33203,
2011-01-14, 02:45:04,VALID,1001.71,VALID,0,INVALID,163.685,VALID,0,VALID,24.2468,VALID,254,VALID,0.864062,
2011-01-14, 02:46:04,VALID,1001.74,VALID,0,INVALID,163.701,VALID,0,VALID,24.2468,VALID,281,VALID,0.994922,
2011-01-14, 02:47:04,VALID,1001.74,VALID,0.5,INVALID,163.693,VALID,0.100563,VALID,24.2468,VALID,214,VALID,0.811328,
2011-01-14, 02:48:04,VALID,1001.74,VALID,0,INVALID,163.701,VALID,0,VALID,24.2273,VALID,206,VALID,0.340625,
2011-01-14, 02:49:04,VALID,1001.75,VALID,0.5,INVALID,163.708,VALID,0.100563,VALID,24.206,VALID,239,VALID,1.36758,
2011-01-14, 02:50:04,VALID,1001.74,VALID,0,INVALID,163.708,VALID,0,VALID,24.206,VALID,247,VALID,0.502344,
2011-01-14, 02:51:04,VALID,1001.7,VALID,0,INVALID,163.708,VALID,0,VALID,24.2468,VALID,229,VALID,0.29375,
2011-01-14, 02:52:04,VALID,1001.73,VALID,0.5,INVALID,163.693,VALID,0.100563,VALID,24.2662,VALID,222,VALID,0.588281,
2011-01-14, 02:53:04,VALID,1001.71,VALID,0.5,INVALID,163.678,VALID,0.100563,VALID,24.2662,VALID,284,VALID,0.54375,
2011-01-14, 02:54:04,VALID,1001.74,VALID,0.5,INVALID,163.701,VALID,0.100563,VALID,24.2857,VALID,267,VALID,1.67656,
2011-01-14, 02:55:04,VALID,1001.72,VALID,0.5,INVALID,163.67,VALID,0,VALID,24.3265,VALID,235,VALID,0.988281,
2011-01-14, 02:56:04,VALID,1001.74,VALID,0.5,INVALID,163.701,VALID,0,VALID,24.3441,VALID,227,VALID,1.94609,
2011-01-14, 02:57:04,VALID,1001.71,VALID,0,INVALID,163.685,VALID,0,VALID,24.3849,VALID,289,VALID,1.20625,
2011-01-14, 02:58:04,VALID,1001.76,VALID,0.5,INVALID,163.678,VALID,0,VALID,24.3636,VALID,251,VALID,1.34063,
2011-01-14, 02:59:04,VALID,1001.76,VALID,0.5,INVALID,163.67,VALID,0,VALID,24.3636,VALID,248,VALID,1.68984,
2011-01-14, 03:00:04,VALID,1001.81,VALID,0,INVALID,163.662,VALID,0,VALID,24.383,VALID,264,VALID,1.225,
2011-01-14, 03:01:04,VALID,1001.81,VALID,0,INVALID,163.678,VALID,0,VALID,24.3636,VALID,284,VALID,2.00742,
2011-01-14, 03:02:04,VALID,1001.84,VALID,0.5,INVALID,163.678,VALID,0,VALID,24.3459,VALID,286,VALID,2.28672,
2011-01-14, 03:03:04,VALID,1001.88,VALID,0,INVALID,163.701,VALID,0,VALID,24.2468,VALID,268,VALID,1.46367,
2011-01-14, 03:04:04,VALID,1001.86,VALID,0,INVALID,163.678,VALID,0,VALID,24.2097,VALID,288,VALID,1.13281,
2011-01-14, 03:05:04,VALID,1001.82,VALID,0,INVALID,163.693,VALID,0,VALID,24.1494,VALID,290,VALID,1.15,
2011-01-14, 03:06:04,VALID,1001.77,VALID,0.5,INVALID,163.693,VALID,0,VALID,24.1494,VALID,293,VALID,1.16992,
2011-01-14, 03:07:04,VALID,1001.8,VALID,0,INVALID,163.67,VALID,0,VALID,24.1707,VALID,266,VALID,1.63359,
2011-01-14, 03:08:04,VALID,1001.94,VALID,0.5,INVALID,163.716,VALID,0,VALID,24.1494,VALID,191,VALID,1.94727,
2011-01-14, 03:09:04,VALID,1001.9,VALID,0,INVALID,163.701,VALID,0,VALID,24.1902,VALID,228,VALID,3.42461,
2011-01-14, 03:10:04,VALID,1001.96,VALID,0.5,INVALID,163.716,VALID,0,VALID,24.0521,VALID,222,VALID,2.36133,
2011-01-14, 03:11:04,VALID,1001.96,VALID,0,INVALID,163.708,VALID,0,VALID,24.015,VALID,206,VALID,2.30117,
2011-01-14, 03:12:04,VALID,1002.01,VALID,0,INVALID,163.731,VALID,0,VALID,23.9353,VALID,217,VALID,2.07539,
2011-01-14, 03:13:04,VALID,1002.02,VALID,0.5,INVALID,163.731,VALID,0,VALID,23.8964,VALID,189,VALID,1.99453,
2011-01-14, 03:14:04,VALID,1002.03,VALID,0,INVALID,163.708,VALID,0,VALID,23.8964,VALID,176,VALID,2.14687,
2011-01-14, 03:15:04,VALID,1002.06,VALID,0,INVALID,163.708,VALID,0,VALID,23.838,VALID,224,VALID,3.49453,
2011-01-14, 03:16:04,VALID,1002.07,VALID,0,INVALID,163.716,VALID,0,VALID,23.7601,VALID,216,VALID,2.54336,
2011-01-14, 03:17:04,VALID,1002.02,VALID,0,INVALID,163.723,VALID,0,VALID,23.7017,VALID,203,VALID,2.37539,
2011-01-14, 03:18:04,VALID,1002.08,VALID,0,INVALID,163.739,VALID,0,VALID,23.6416,VALID,194,VALID,0.867969,
2011-01-14, 03:19:04,VALID,1002.14,VALID,0.5,INVALID,163.754,VALID,0,VALID,23.6628,VALID,215,VALID,0.786719,
2011-01-14, 03:20:04,VALID,1002.14,VALID,0,INVALID,163.731,VALID,0,VALID,23.6628,VALID,218,VALID,1.44805,
2011-01-14, 03:21:04,VALID,1002.16,VALID,0,INVALID,163.746,VALID,0,VALID,23.6823,VALID,205,VALID,0.503906,
2011-01-14, 03:22:04,VALID,1002.18,VALID,0,INVALID,163.739,VALID,0,VALID,23.7212,VALID,254,VALID,1.46875,
2011-01-14, 03:23:04,VALID,1002.21,VALID,0,INVALID,163.754,VALID,0,VALID,23.6823,VALID,211,VALID,1.40195,
2011-01-14, 03:24:04,VALID,1002.22,VALID,0.5,INVALID,163.739,VALID,0,VALID,23.6239,VALID,217,VALID,1.13437,
2011-01-14, 03:25:04,VALID,1002.22,VALID,0,INVALID,163.731,VALID,0,VALID,23.6239,VALID,187,VALID,0.305469,
2011-01-14, 03:26:04,VALID,1002.21,VALID,0,INVALID,163.723,VALID,0,VALID,23.6646,VALID,250,VALID,1.06719,
2011-01-14, 03:27:04,VALID,1002.19,VALID,0,INVALID,163.754,VALID,0,VALID,23.6823,VALID,191,VALID,1.7918,
2011-01-14, 03:28:04,VALID,1002.22,VALID,0,INVALID,163.754,VALID,0,VALID,23.7425,VALID,261,VALID,1.0918,
2011-01-14, 03:29:04,VALID,1002.23,VALID,0.5,INVALID,163.723,VALID,0,VALID,23.8203,VALID,243,VALID,2.26797,
2011-01-14, 03:30:04,VALID,1002.27,VALID,0,INVALID,163.716,VALID,0,VALID,23.8575,VALID,231,VALID,1.44883,
2011-01-14, 03:31:04,VALID,1002.29,VALID,0,INVALID,163.739,VALID,0,VALID,23.8964,VALID,257,VALID,1.40039,
2011-01-14, 03:32:04,VALID,1002.33,VALID,0,INVALID,163.701,VALID,0,VALID,23.9159,VALID,54,VALID,0.478906,
2011-01-14, 03:33:04,VALID,1002.32,VALID,0,INVALID,163.716,VALID,0,VALID,23.9566,VALID,218,VALID,1.64375,
2011-01-14, 03:34:04,VALID,1002.3,VALID,0.5,INVALID,163.701,VALID,0,VALID,23.9353,VALID,158,VALID,1.25391,
2011-01-14, 03:35:04,VALID,1002.25,VALID,0,INVALID,163.708,VALID,0,VALID,23.9955,VALID,231,VALID,1.43125,
2011-01-14, 03:36:04,VALID,1002.25,VALID,0,INVALID,163.701,VALID,0,VALID,23.9937,VALID,284,VALID,0.854688,
2011-01-14, 03:37:04,VALID,1002.21,VALID,0,INVALID,163.716,VALID,0,VALID,24.0132,VALID,242,VALID,1.44727,
2011-01-14, 03:38:04,VALID,1002.21,VALID,0,INVALID,163.716,VALID,0,VALID,23.9159,VALID,192,VALID,1.25664,
2011-01-14, 03:39:04,VALID,1002.19,VALID,0,INVALID,163.716,VALID,0,VALID,23.9371,VALID,108,VALID,0.519531,
2011-01-14, 03:40:04,VALID,1002.12,VALID,0,INVALID,163.708,VALID,0,VALID,23.9353,VALID,196,VALID,1.90977,
2011-01-14, 03:41:04,VALID,1002.17,VALID,0,INVALID,163.685,VALID,0,VALID,23.9742,VALID,252,VALID,0.673437,